This is the latest recevied weather packets stored in our database for station/object SQ3VAS-10. If no packets are shown the sender has not sent any weather packets the latest 10 day(s).
| Time | Temp. | Humidity | Pressure | Rain* | Wind** | Luminosity | Snow |
|---|---|---|---|---|---|---|---|
| 1777951238 | 10° C | 87% | 1012 hPa | - | - | - | - |
| 1777950665 | 10° C | 86% | 1012 hPa | - | - | - | - |
| 1777950094 | 9.44° C | 86% | 1012.2 hPa | - | - | - | - |
| 1777949521 | 9.44° C | 86% | 1012.4 hPa | - | - | - | - |
| 1777948950 | 10° C | 86% | 1012.4 hPa | - | - | - | - |
| 1777948377 | 10° C | 85% | 1012.6 hPa | - | - | - | - |
| 1777947805 | 10° C | 86% | 1012.5 hPa | - | - | - | - |
| 1777947234 | 10° C | 86% | 1012.5 hPa | - | - | - | - |
| 1777946662 | 10° C | 86% | 1012.5 hPa | - | - | - | - |
| 1777946090 | 10° C | 84% | 1012.5 hPa | - | - | - | - |
| 1777945517 | 10° C | 85% | 1012.5 hPa | - | - | - | - |
| 1777944946 | 10° C | 86% | 1012.6 hPa | - | - | - | - |
| 1777944374 | 10.56° C | 85% | 1012.7 hPa | - | - | - | - |
| 1777943802 | 11.11° C | 83% | 1012.6 hPa | - | - | - | - |
| 1777943230 | 11.11° C | 83% | 1012.7 hPa | - | - | - | - |
| 1777942659 | 11.11° C | 84% | 1012.8 hPa | - | - | - | - |
| 1777942086 | 10.56° C | 83% | 1012.8 hPa | - | - | - | - |
| 1777941515 | 11.11° C | 83% | 1012.8 hPa | - | - | - | - |
| 1777940943 | 11.11° C | 82% | 1012.8 hPa | - | - | - | - |
| 1777940372 | 11.11° C | 82% | 1012.9 hPa | - | - | - | - |
| 1777939799 | 11.67° C | 81% | 1012.9 hPa | - | - | - | - |
| 1777939227 | 11.67° C | 80% | 1012.9 hPa | - | - | - | - |
| 1777938657 | 11.67° C | 81% | 1012.9 hPa | - | - | - | - |
| 1777938080 | 11.67° C | 80% | 1013 hPa | - | - | - | - |
| 1777937509 | 12.22° C | 79% | 1012.9 hPa | - | - | - | - |
* Rain since midnight (hover to see other rain measurements)
** Current wind speed in m/s (hover to see current wind gust speed)